OneWeb SL0588

operational
NORAD ID: 55153 Int'l Des: 2023-004 Owner: ONEWEBN Country: UK Constellation: oneweb
LEOCIRCULARPOLARONEWEB_TYPE

OneWeb SL0588について

説明を読み込み中...

リアルタイム位置

3D地球を読み込み中...

次回通過

高度履歴

Altitude vs Time

uPlot chart will show altitude changes over time

軌道要素

1 55153U 23004P 25304.64359939 .00000048 00000-0 88855-4 0 9990
2 55153 87.9217 20.8788 0001924 87.1125 273.0227 13.18686162139578
Epoch: Oct 31, 2025 • Age: 9 hours

現在のステータス

高度 1209.7 km
速度 7.25 km/s
衛星直下点 -48.78°S, 26.68°W
打ち上げ日 Jan 10, 2023
運用期間 2.8 years
タイプ internet

技術仕様

分類 Payload
質量 148.00 kg
乾燥質量 140.00 kg
総質量 148.00 kg
長さ 1.30 m
直径 1.00 m
スパン 5.00 m
形状 Trapezoid+2 pan
製造者 ONEWUS
バスタイプ ARROW
フェーズステータス In Orbit
所有者/国 ONEWEBN/UK

大規模コンステレーション

Loading constellations...